When you browse on this site, cookies collect data to enhance your experience and personalize the content and advertising you see.
Visit our Privacy Policy to learn more. By continuing to use the site, you agree to this use of cookies and data.
  • In Hungary
  • List of Countries
  • For 7 days
  • Water Temperature
  • Satellite Maps
  • Weather Map
  • News
  • Weather Widgets
  • user-avatar
    Login

    Hourly Weather Nashavar

    Today, 10 December, Monday

    Time Temperature Precipitation Wind Pressure Humidity
    00:00 +16°C° 0.1 mm 1 mps 730 mmHg 47%
    01:00 +15°C° 0.1 mm 2 mps 730 mmHg 50%
    02:00 +15°C° 0.1 mm 2 mps 730 mmHg 53%
    03:00 +14°C° 0.3 mm 2 mps 730 mmHg 56%
    04:00 +14°C° 0.3 mm 2 mps 731 mmHg 59%
    05:00 +14°C° 0.3 mm 2 mps 731 mmHg 63%
    06:00 +13°C° 0.3 mm 2 mps 731 mmHg 64%
    07:00 +13°C° 0.3 mm 2 mps 731 mmHg 66%
    08:00 +13°C° 0.3 mm 2 mps 732 mmHg 68%
    09:00 +14°C° 0.2 mm 2 mps 732 mmHg 64%
    10:00 +14°C° 0.2 mm 2 mps 732 mmHg 61%
    11:00 +14°C° 0.2 mm 3 mps 733 mmHg 57%
    12:00 +14°C° 0.1 mm 3 mps 732 mmHg 55%
    13:00 +16°C° 0.1 mm 3 mps 732 mmHg 53%
    14:00 +16°C° 0.1 mm 3 mps 732 mmHg 52%
    15:00 +16°C° 0 mm 3 mps 732 mmHg 53%
    16:00 +15°C° 0 mm 2 mps 732 mmHg 54%
    17:00 +15°C° 0 mm 2 mps 732 mmHg 56%
    18:00 +14°C° 0 mm 2 mps 733 mmHg 58%
    19:00 +14°C° 0 mm 2 mps 733 mmHg 60%
    20:00 +13°C° 0 mm 1 mps 734 mmHg 61%
    21:00 +13°C° 0 mm 1 mps 734 mmHg 61%
    22:00 +13°C° 0 mm 2 mps 734 mmHg 61%
    23:00 +13°C° 0 mm 2 mps 735 mmHg 61%

    Tomorrow, 11 December, Tuesday

    Time Temperature Precipitation Wind Pressure Humidity
    00:00 +12°C° 0 mm 2 mps 734 mmHg 60%
    01:00 +12°C° 0 mm 2 mps 734 mmHg 60%
    02:00 +12°C° 0 mm 2 mps 734 mmHg 59%
    03:00 +12°C° 0 mm 2 mps 734 mmHg 58%
    04:00 +10°C° 0 mm 2 mps 734 mmHg 56%
    05:00 +10°C° 0 mm 2 mps 734 mmHg 55%
    06:00 +10°C° 0 mm 2 mps 734 mmHg 53%
    07:00 +10°C° 0 mm 2 mps 734 mmHg 52%
    08:00 +10°C° 0 mm 2 mps 734 mmHg 50%
    09:00 +13°C° 0 mm 2 mps 734 mmHg 45%
    10:00 +15°C° 0 mm 2 mps 735 mmHg 39%
    11:00 +16°C° 0 mm 2 mps 735 mmHg 33%
    12:00 +17°C° 0 mm 2 mps 734 mmHg 31%
    13:00 +17°C° 0 mm 2 mps 734 mmHg 30%
    14:00 +18°C° 0 mm 2 mps 733 mmHg 28%
    15:00 +17°C° 0 mm 2 mps 733 mmHg 30%
    16:00 +17°C° 0 mm 2 mps 733 mmHg 32%
    17:00 +16°C° 0 mm 2 mps 733 mmHg 33%
    18:00 +15°C° 0 mm 2 mps 734 mmHg 35%
    19:00 +15°C° 0 mm 2 mps 734 mmHg 37%
    20:00 +14°C° 0 mm 2 mps 735 mmHg 39%
    21:00 +14°C° 0 mm 2 mps 735 mmHg 39%
    22:00 +13°C° 0 mm 2 mps 735 mmHg 40%
    23:00 +13°C° 0 mm 2 mps 735 mmHg 40%

    Day after tomorrow, 12 December, Wednesday

    Time Temperature Precipitation Wind Pressure Humidity
    00:00 +12°C° 0 mm 2 mps 735 mmHg 40%
    01:00 +12°C° 0 mm 2 mps 735 mmHg 40%
    02:00 +12°C° 0 mm 2 mps 734 mmHg 40%
    03:00 +12°C° 0 mm 2 mps 734 mmHg 40%
    04:00 +10°C° 0 mm 2 mps 734 mmHg 40%
    05:00 +10°C° 0 mm 2 mps 734 mmHg 40%
    06:00 +10°C° 0 mm 2 mps 735 mmHg 39%
    07:00 +10°C° 0 mm 2 mps 735 mmHg 39%
    08:00 +10°C° 0 mm 2 mps 736 mmHg 38%
    09:00 +13°C° 0 mm 2 mps 736 mmHg 34%
    10:00 +14°C° 0 mm 2 mps 736 mmHg 30%
    11:00 +16°C° 0 mm 2 mps 736 mmHg 25%
    12:00 +17°C° 0 mm 2 mps 736 mmHg 24%
    13:00 +17°C° 0 mm 3 mps 735 mmHg 22%
    14:00 +18°C° 0 mm 3 mps 735 mmHg 21%
    15:00 +17°C° 0 mm 2 mps 735 mmHg 23%
    16:00 +17°C° 0 mm 2 mps 735 mmHg 25%
    17:00 +16°C° 0 mm 2 mps 735 mmHg 26%
    18:00 +15°C° 0 mm 2 mps 735 mmHg 28%
    19:00 +13°C° 0 mm 3 mps 736 mmHg 31%
    20:00 +13°C° 0 mm 3 mps 736 mmHg 33%
    21:00 +12°C° 0 mm 3 mps 737 mmHg 33%
    22:00 +12°C° 0 mm 3 mps 737 mmHg 33%
    23:00 +11°C° 0 mm 3 mps 737 mmHg 34%

    13 December, Thursday

    Time Temperature Precipitation Wind Pressure Humidity
    00:00 +11°C° 0 mm 3 mps 736 mmHg 33%
    01:00 +12°C° 0 mm 2 mps 736 mmHg 33%
    02:00 +10°C° 0 mm 2 mps 736 mmHg 33%
    03:00 +10°C° 0 mm 2 mps 736 mmHg 32%
    04:00 +10°C° 0 mm 2 mps 736 mmHg 32%
    05:00 +9°C° 0 mm 2 mps 736 mmHg 32%
    06:00 +9°C° 0 mm 2 mps 736 mmHg 31%
    07:00 +9°C° 0 mm 2 mps 736 mmHg 31%
    08:00 +10°C° 0 mm 2 mps 736 mmHg 30%
    09:00 +12°C° 0 mm 2 mps 736 mmHg 26%
    10:00 +14°C° 0 mm 2 mps 736 mmHg 22%
    11:00 +16°C° 0 mm 2 mps 736 mmHg 18%
    12:00 +17°C° 0 mm 2 mps 736 mmHg 17%
    13:00 +18°C° 0 mm 2 mps 735 mmHg 16%
    14:00 +18°C° 0 mm 2 mps 735 mmHg 14%
    15:00 +17°C° 0 mm 2 mps 735 mmHg 16%
    16:00 +18°C° 0 mm 1 mps 734 mmHg 17%
    17:00 +16°C° 0 mm 1 mps 734 mmHg 19%
    18:00 +15°C° 0 mm 1 mps 735 mmHg 19%
    19:00 +14°C° 0 mm 2 mps 735 mmHg 20%
    20:00 +13°C° 0 mm 2 mps 736 mmHg 20%
    21:00 +13°C° 0 mm 2 mps 736 mmHg 20%
    22:00 +13°C° 0 mm 2 mps 736 mmHg 21%
    23:00 +12°C° 0 mm 2 mps 736 mmHg 21%

    14 December, Friday

    Time Temperature Precipitation Wind Pressure Humidity
    00:00 +12°C° 0 mm 2 mps 736 mmHg 20%
    01:00 +10°C° 0 mm 2 mps 736 mmHg 19%
    02:00 +10°C° 0 mm 2 mps 736 mmHg 19%
    03:00 +10°C° 0 mm 2 mps 735 mmHg 18%
    04:00 +10°C° 0 mm 1 mps 735 mmHg 18%
    05:00 +10°C° 0 mm 1 mps 735 mmHg 18%
    06:00 +10°C° 0 mm 1 mps 736 mmHg 18%
    07:00 +10°C° 0 mm 1 mps 736 mmHg 19%
    08:00 +10°C° 0 mm 1 mps 736 mmHg 19%
    09:00 +12°C° 0 mm 1 mps 736 mmHg 17%
    10:00 +14°C° 0 mm 1 mps 736 mmHg 15%
    11:00 +16°C° 0 mm 1 mps 736 mmHg 12%
    12:00 +18°C° 0 mm 1 mps 736 mmHg 12%
    13:00 +19°C° 0 mm 1 mps 735 mmHg 11%
    14:00 +20°C° 0 mm 1 mps 735 mmHg 11%
    15:00 +19°C° 0 mm 1 mps 735 mmHg 13%
    16:00 +18°C° 0 mm 1 mps 735 mmHg 15%
    17:00 +14°C° 0 mm 0 mps 735 mmHg 17%
    18:00 +15°C° 0 mm 1 mps 736 mmHg 17%
    19:00 +14°C° 0 mm 1 mps 736 mmHg 17%
    20:00 +14°C° 0 mm 1 mps 737 mmHg 17%
    21:00 +13°C° 0 mm 1 mps 737 mmHg 17%
    22:00 +13°C° 0 mm 1 mps 737 mmHg 17%
    23:00 +12°C° 0 mm 2 mps 737 mmHg 18%

    15 December, Saturday

    Time Temperature Precipitation Wind Pressure Humidity
    00:00 +12°C° 0 mm 1 mps 737 mmHg 17%
    01:00 +12°C° 0 mm 1 mps 737 mmHg 17%
    02:00 +11°C° 0 mm 1 mps 736 mmHg 17%
    03:00 +11°C° 0 mm 1 mps 736 mmHg 16%
    04:00 +11°C° 0 mm 1 mps 736 mmHg 16%
    05:00 +10°C° 0 mm 1 mps 736 mmHg 16%
    06:00 +11°C° 0 mm 1 mps 736 mmHg 16%
    07:00 +11°C° 0 mm 1 mps 737 mmHg 17%
    08:00 +11°C° 0 mm 1 mps 737 mmHg 17%
    09:00 +13°C° 0 mm 1 mps 737 mmHg 15%
    10:00 +15°C° 0 mm 1 mps 737 mmHg 13%
    11:00 +18°C° 0 mm 1 mps 737 mmHg 11%
    12:00 +19°C° 0 mm 1 mps 737 mmHg 10%
    13:00 +20°C° 0 mm 1 mps 737 mmHg 10%
    14:00 +21°C° 0 mm 1 mps 736 mmHg 10%
    15:00 +20°C° 0 mm 1 mps 736 mmHg 12%
    16:00 +18°C° 0 mm 1 mps 736 mmHg 14%
    17:00 +15°C° 0 mm 0 mps 736 mmHg 16%
    18:00 +15°C° 0 mm 1 mps 736 mmHg 16%
    19:00 +15°C° 0 mm 1 mps 737 mmHg 16%
    20:00 +14°C° 0 mm 1 mps 737 mmHg 16%
    21:00 +14°C° 0 mm 1 mps 737 mmHg 16%
    22:00 +13°C° 0 mm 1 mps 737 mmHg 16%
    23:00 +13°C° 0 mm 2 mps 737 mmHg 17%
    Show more